Regional Weather Roundup
Issued by NWS Northern Indiana

Home | Current Version | Previous Version | Text Only | Print | Product List | Glossary Off
Versions: 1 2 3 4 5 6 7 8 9 10 11 12 13 14 15 16 17 18 19 20 21 22 23 24 25 26 27 28 29 30 31 32 33 34 35 36 37 38 39 40 41 42 43 44 45 46 47 48 49 50

788
ASUS43 KIWX 182100
RWRIWX

KIWX WEATHER ROUNDUP
NATIONAL WEATHER SERVICE NORTHERN INDIANA
500 PM EDT WED OCT 18 2017

NOTE: "FAIR" INDICATES FEW OR NO CLOUDS BELOW 12,000 FEET WITH NO
SIGNIFICANT WEATHER AND/OR OBSTRUCTIONS TO VISIBILITY.

* THESE STATIONS ARE NOT UNDER NWS QUALITY CONTROL. THEY ALSO MAY NOT
  REPORT WEATHER SUCH AS PRECIPITATION OR FOG.

INZ001>027-182200-
NORTHERN INDIANA

CITY           SKY/WX    TMP DP  RH WIND       PRES   REMARKS
GARY*          SUNNY     72  34  25 S7G25     30.08S
MICHIGAN CITY* SUNNY     68  39  34 S15       30.09F
KNOX*          SUNNY     70  37  30 S12G22    30.10F
SOUTH BEND     SUNNY     67  39  35 S14       30.10F
ELKHART*       SUNNY     68  36  30 S14G21    30.11F
GOSHEN         SUNNY     68  37  32 S14G25    30.12F
MONTICELLO*    SUNNY     69  38  31 S13       30.13S
WARSAW*        SUNNY     68  39  34 SW7       30.13F
AUBURN*        SUNNY     70  36  28 S9G16     30.15F
FORT WAYNE     MOSUNNY   69  38  32 SW14      30.16F
PERU/GRISSOM   SUNNY     69  42  37 S14       30.14F

$$
INZ028>050-182200-
CENTRAL INDIANA

CITY           SKY/WX    TMP DP  RH WIND       PRES   REMARKS
LAFAYETTE      SUNNY     68  42  38 S14       30.13F
KOKOMO*        SUNNY     69  42  37 S13G20    30.16F
MUNCIE*        SUNNY     71  37  28 SW12G17   30.17F
INDIANAPOLIS   MOSUNNY   69  43  38 S12       30.17F

$$
MIZ043>046-050>051-056>058-064>065-071>073-077>080-182200-
SOUTHWEST LOWER MICHIGAN

CITY           SKY/WX    TMP DP  RH WIND       PRES   REMARKS
BATTLE CREEK   SUNNY     67  38  34 SW18      30.10F
BENTON HARBOR  SUNNY     69  37  30 S14G20    30.07F
COLDWATER*     SUNNY     68  36  30 SW8G16    30.12F
HILLSDALE*     SUNNY     66  36  32 S13       30.14S
HOLLAND        SUNNY     68  39  34 S14G24    30.05F
GRAND RAPIDS   MOSUNNY   69  39  33 S15       30.06F
KALAMAZOO      SUNNY     68  37  32 S15       30.10F
STURGIS*       SUNNY     67  39  36 SW13G22   30.11F
THREE RIVERS*  FAIR      68  39  34 S13       30.11F

$$
OHZ001>008-015>018-024>025-182200-
NORTHWEST OHIO

CITY           SKY/WX    TMP DP  RH WIND       PRES   REMARKS
DEFIANCE       SUNNY     69  39  33 SW17      30.15F
FINDLAY        SUNNY     70  38  31 S18       30.16F
TOLEDO EXPRESS SUNNY     70  42  36 SW13      30.15F
TOLEDO METCALF SUNNY     70  38  31 S15G21    30.16F
LIMA           SUNNY     67  39  35 S15       30.17F

$$
AND FOR LAKE MICHIGAN COASTAL AND OPEN LAKE BUOY OBSERVATIONS

STATION/POSITION TEMP    WIND        PRES    VSBY  WAVE
                 AIR SEA DIR/SP/G                  HT/PER
                 (F)     (DEG/KT/KT) (MB)    (MI)  (FT/S)
CALUMET HARBOR    69     170/ 14/ 19 1017.2F
MICHIGAN CITY     68     170/ 16/ 21   N/A
BURNS HARBOR      68     200/ 17/ 22 1019.0S
SAINT JOSEPH      69     210/  9/ 18 1019.0
SOUTH LAKE BUOY   62 61  180/ 21/ 25 1017.1          6/ 6
4 MI NW BRIDGMAN  64 58  210/ 14/ 19 1018.7F         3/ 4
MICHIGAN CITY     66 58  200/ 17/ 21   N/A           2/ 3

$$
&&




USA.gov is the U.S. government's official web portal to all federal, state and local government web resources and services.